K5WXL Weather Reports


Display with metric or nautical units.
time (UTC)temp
F
wind
direction
speed
MPH
gust
MPH
rain 1hr
in
rain 24hr
in
rain mn
in
humidity
%
barometer
mb
20260506081536 49 25 11.0 16.0 0.00 0.00 0.00 75 1013.3
20260506073023 49 23 10.0 17.0 0.00 0.00 0.00 79 1012.4
20260506071527 49 56 11.0 19.0 0.00 0.00 0.00 80 1012.1
20260506061508 50 23 8.0 19.0 0.00 0.00 0.00 81 1012.6
20260506044518 50 32 10.0 16.0 0.00 0.00 0.00 79 1011.9
20260506043014 50 61 11.0 19.0 0.00 0.00 0.00 79 1011.9
20260506041520 50 22 11.0 19.0 0.00 0.00 0.00 79 1011.5
20260506040032 50 27 13.0 18.0 0.00 0.00 0.00 79 1011.8
20260506034508 50 34 13.0 21.0 0.00 0.00 0.00 79 1012.0
20260506033014 50 47 15.0 21.0 0.00 0.00 0.00 78 1011.5
20260506031520 51 23 11.0 20.0 0.00 0.00 0.00 78 1011.6
20260506030023 51 38 10.0 22.0 0.00 0.00 0.00 77 1011.1
20260506024524 51 31 13.0 21.0 0.00 0.00 0.00 76 1011.1
20260506023010 52 23 13.0 21.0 0.00 0.00 0.00 76 1011.1
20260506021531 52 24 12.0 19.0 0.00 0.00 0.00 76 1010.8
20260506020025 52 14 14.0 21.0 0.00 0.00 0.00 75 1010.6
20260506014525 52 18 18.0 26.0 0.00 0.00 0.00 74 1010.3
20260506013031 53 23 13.0 23.0 0.00 0.00 0.00 74 1010.0
20260506011514 53 359 14.0 21.0 0.00 0.00 0.00 73 1009.4
20260506010020 54 27 17.0 25.0 0.00 0.00 0.00 73 1009.1
20260506004527 54 6 12.0 19.0 0.00 0.00 0.00 73 1008.9
20260506003026 54 32 14.0 21.0 0.00 0.00 0.00 72 1009.2
20260506001509 54 29 15.0 21.0 0.00 0.00 0.00 72 1009.2
20260506000014 54 356 13.0 19.0 0.00 0.00 0.00 73 1009.2
20260505234503 54 29 14.0 20.0 0.00 0.00 0.00 73 1009.0
20260505233004 54 4 13.0 22.0 0.00 0.00 0.00 75 1009.0
20260505231512 55 20 13.0 23.0 0.00 0.00 0.00 76 1009.1
20260505230021 55 358 16.0 21.0 0.00 0.00 0.00 75 1008.9
20260505224517 56 342 13.0 19.0 0.00 0.00 0.00 74 1009.1
20260505223005 56 328 11.0 19.0 0.00 0.00 0.00 74 1008.9
20260505221504 56 346 13.0 20.0 0.00 0.00 0.00 75 1009.1
20260505220009 57 31 15.0 20.0 0.00 0.00 0.00 75 1008.9
20260505214517 57 13 14.0 20.0 0.00 0.00 0.00 75 1008.5
20260505213028 57 16 14.0 23.0 0.00 0.00 0.00 75 1008.8
20260505211509 58 352 14.0 18.0 0.00 0.00 0.00 74 1008.0
20260505210013 59 335 11.0 18.0 0.00 0.00 0.00 73 1008.2
20260505204514 59 343 13.0 19.0 0.00 0.00 0.00 72 1007.9
20260505203024 61 359 12.0 22.0 0.00 0.00 0.00 71 1008.0
20260505201530 61 356 14.0 22.0 0.00 0.00 0.00 70 1007.8
20260505200010 62 23 13.0 20.0 0.00 0.00 0.00 69 1007.6
20260505194509 62 356 13.0 20.0 0.00 0.00 0.00 70 1007.5
20260505193015 63 13 15.0 23.0 0.00 0.00 0.00 69 1007.6
20260505191519 62 336 13.0 25.0 0.00 0.00 0.00 72 1007.0
20260505190025 62 327 16.0 25.0 0.00 0.00 0.00 72 1006.9
20260505184508 63 20 17.0 25.0 0.00 0.00 0.00 70 1007.1
20260505183018 64 336 15.0 20.0 0.00 0.00 0.00 69 1007.0
20260505181520 63 18 15.0 22.0 0.00 0.00 0.00 71 1006.5
20260505180021 64 6 17.0 25.0 0.00 0.00 0.00 71 1007.1
20260505174529 65 309 18.0 23.0 0.00 0.00 0.00 71 1006.7
20260505173029 65 338 17.0 24.0 0.00 0.00 0.00 71 1005.9
20260505171515 66 1 15.0 20.0 0.00 0.00 0.00 72 1005.1
20260505170020 65 360 15.0 24.0 0.00 0.00 0.00 73 1005.2
20260505164523 66 13 14.0 26.0 0.00 0.00 0.00 72 1004.8
20260505163032 67 345 18.0 28.0 0.00 0.00 0.00 72 1004.4
20260505161525 68 315 15.0 28.0 0.00 0.00 0.00 72 1004.2
20260505153024 73 323 12.0 20.0 0.00 0.00 0.00 52 1003.3
20260505151531 74 283 13.0 20.0 0.00 0.00 0.00 59 1002.7
20260505124528 67 202 4.0 5.0 0.00 0.00 0.00 82 1001.3
20260505123026 67 221 5.0 7.0 0.00 0.00 0.00 82 1001.2
20260505121521 67 229 4.0 9.0 0.00 0.00 0.00 82 1001.1
20260505120006 67 207 6.0 10.0 0.00 0.00 0.00 82 1000.9
20260505114516 66 217 9.0 10.0 0.00 0.00 0.00 82 1000.5
20260505113020 67 214 8.0 11.0 0.00 0.00 0.00 81 1000.3
20260505111518 68 212 7.0 10.0 0.00 0.00 0.00 80 1000.4
20260505101519 69 193 7.0 11.0 0.00 0.00 0.00 77 1000.0
20260505100022 69 205 5.0 9.0 0.00 0.00 0.00 77 1000.1
20260505094524 69 210 6.0 9.0 0.00 0.00 0.00 78 1000.0
20260505093025 69 202 6.0 11.0 0.00 0.00 0.00 78 1000.0
20260505091516 69 195 8.0 13.0 0.00 0.00 0.00 79 1000.2
20260505090019 69 203 4.0 7.0 0.00 0.00 0.00 79 1000.2
20260505084522 69 175 5.0 9.0 0.00 0.00 0.00 79 1000.4
20260505083028 70 188 7.0 16.0 0.00 0.00 0.00 78 1000.4